GW1106 Weather Reports


time (UTC)temp
C
wind
direction
speed
KPH
gust
KPH
rain 1hr
cm
rain 24hr
cm
rain mn
cm
humidity
%
barometer
mb
20260503200257 19 280 6.4 14.5 0.00 0.00 0.00 33 1018.2
20260503195755 20 246 9.7 14.5 0.00 0.00 0.00 32 1018.3
20260503195251 20 206 6.4 12.9 0.00 0.00 0.00 31 1018.5
20260503194749 20 186 6.4 6.4 0.00 0.00 0.00 33 1018.5
20260503194244 20 260 6.4 6.4 0.00 0.00 0.00 30 1018.6
20260503193741 18 212 3.2 9.7 0.00 0.00 0.00 31 1018.7
20260503193237 19 240 8.0 16.1 0.00 0.00 0.00 32 1019.0
20260503192733 20 197 6.4 12.9 0.00 0.00 0.00 32 1019.1
20260503192228 19 93 1.6 4.8 0.00 0.00 0.00 34 1019.1
20260503191725 18 281 12.9 16.1 0.00 0.00 0.00 33 1019.2
20260503191222 18 288 9.7 16.1 0.00 0.00 0.00 32 1019.2
20260503190719 18 237 9.7 14.5 0.00 0.00 0.00 33 1019.4
20260503190215 18 242 14.5 17.7 0.00 0.00 0.00 34 1019.3
20260503185713 18 259 16.1 17.7 0.00 0.00 0.00 33 1019.3
20260503185208 18 277 1.6 3.2 0.00 0.00 0.00 37 1019.2
20260503184703 18 297 1.6 6.4 0.00 0.00 0.00 37 1019.5
20260503184159 18 238 3.2 12.9 0.00 0.00 0.00 34 1019.6
20260503183656 17 227 1.6 6.4 0.00 0.00 0.00 37 1019.6
20260503183153 17 263 11.3 17.7 0.00 0.00 0.00 36 1019.6
20260503182651 17 273 6.4 12.9 0.00 0.00 0.00 36 1019.6
20260503182149 18 214 6.4 14.5 0.00 0.00 0.00 40 1019.7
20260503181646 17 237 9.7 17.7 0.00 0.00 0.00 35 1019.9
20260503181143 17 316 8.0 16.1 0.00 0.00 0.00 34 1019.8
20260503180640 17 286 9.7 14.5 0.00 0.00 0.00 37 1019.9
20260503180138 17 258 8.0 16.1 0.00 0.00 0.00 35 1020.0
20260503175634 17 358 1.6 4.8 0.00 0.00 0.00 37 1020.1
20260503175131 17 195 6.4 16.1 0.00 0.00 0.00 36 1020.2
20260503174623 17 223 11.3 17.7 0.00 0.00 0.00 38 1020.2
20260503174120 17 237 9.7 17.7 0.00 0.00 0.00 37 1020.2
20260503173615 17 285 11.3 12.9 0.00 0.00 0.00 38 1020.3
20260503173111 17 346 3.2 4.8 0.00 0.00 0.00 36 1020.2
20260503172608 17 298 3.2 11.3 0.00 0.00 0.00 38 1020.5
20260503172106 16 259 8.0 12.9 0.00 0.00 0.00 39 1020.5
20260503171602 16 244 11.3 17.7 0.00 0.00 0.00 40 1020.6
20260503171059 16 274 11.3 17.7 0.00 0.00 0.00 37 1020.8
20260503170555 16 266 11.3 14.5 0.00 0.00 0.00 39 1020.7
20260503150943 15 358 1.6 6.4 0.00 0.00 0.00 47 1021.8
20260503150439 15 319 6.4 11.3 0.00 0.00 0.00 50 1021.9
20260503131331 12 84 1.6 4.8 0.00 0.00 0.00 56 1021.5
20260503130829 12 153 1.6 1.6 0.00 0.00 0.00 58 1021.9
20260503130326 11 136 0.0 4.8 0.00 0.00 0.00 60 1021.6
20260503110720 2 146 0.0 0.0 0.00 0.00 0.00 98 1020.8
20260503110217 1 145 0.0 0.0 0.00 0.00 0.00 98 1020.8
20260503100143 1 135 0.0 0.0 0.00 0.00 0.00 97 1019.7
20260503081538 2 121 0.0 0.0 0.00 0.00 0.00 94 1018.7
20260503081036 2 135 0.0 0.0 0.00 0.00 0.00 96 1018.8
20260503080532 2 148 0.0 0.0 0.00 0.00 0.00 96 1018.7
20260503072505 2 140 0.0 0.0 0.00 0.00 0.00 94 1018.4
20260503072003 2 141 0.0 0.0 0.00 0.00 0.00 94 1018.5
20260503071500 2 130 0.0 0.0 0.00 0.00 0.00 94 1018.0
20260503070955 2 135 0.0 0.0 0.00 0.00 0.00 94 1017.9
20260503070453 2 136 0.0 0.0 0.00 0.00 0.00 94 1018.0
20260503054906 3 111 0.0 0.0 0.00 0.00 0.00 90 1018.0
20260503054402 3 132 0.0 0.0 0.00 0.00 0.00 89 1018.0
20260503053900 3 101 0.0 0.0 0.00 0.00 0.00 88 1018.0
20260503053358 3 139 0.0 0.0 0.00 0.00 0.00 88 1018.1
20260503052853 4 145 0.0 1.6 0.00 0.00 0.00 88 1018.0
20260503052351 4 135 0.0 1.6 0.00 0.00 0.00 87 1018.0
20260503051847 3 115 0.0 1.6 0.00 0.00 0.00 89 1018.2
20260503051343 3 159 0.0 0.0 0.00 0.00 0.00 90 1017.9
20260503050840 3 157 0.0 0.0 0.00 0.00 0.00 90 1017.9
20260503050336 3 162 0.0 0.0 0.00 0.00 0.00 89 1017.8
20260503045834 4 166 0.0 0.0 0.00 0.00 0.00 88 1017.9
20260503045332 4 156 0.0 0.0 0.00 0.00 0.00 87 1017.9
20260503044828 4 131 0.0 0.0 0.00 0.00 0.00 86 1017.7
20260503044325 5 130 0.0 0.0 0.00 0.00 0.00 86 1017.8
20260503043822 4 112 0.0 0.0 0.00 0.00 0.00 87 1017.6
20260503043319 4 138 0.0 0.0 0.00 0.00 0.00 87 1017.7
20260503042815 5 135 0.0 1.6 0.00 0.00 0.00 88 1017.5
20260503042312 5 133 0.0 0.0 0.00 0.00 0.00 85 1017.5
20260503041808 5 128 0.0 0.0 0.00 0.00 0.00 84 1017.5
20260503041306 5 130 0.0 0.0 0.00 0.00 0.00 82 1017.4
20260503040803 5 124 0.0 0.0 0.00 0.00 0.00 81 1017.3
20260503040301 6 109 0.0 1.6 0.00 0.00 0.00 81 1017.4
20260503035757 6 146 0.0 0.0 0.00 0.00 0.00 79 1017.3
20260503035255 6 152 0.0 0.0 0.00 0.00 0.00 78 1017.3
20260503034752 6 136 0.0 3.2 0.00 0.00 0.00 77 1017.3
20260503034249 6 137 0.0 0.0 0.00 0.00 0.00 78 1017.0
20260503033746 6 110 0.0 0.0 0.00 0.00 0.00 78 1017.2
20260503033243 6 144 0.0 0.0 0.00 0.00 0.00 78 1017.3
20260503032742 6 132 0.0 0.0 0.00 0.00 0.00 76 1017.2
20260503032240 7 137 0.0 0.0 0.00 0.00 0.00 74 1017.1
20260503031737 7 142 0.0 0.0 0.00 0.00 0.00 74 1017.2
20260503031235 7 110 1.6 3.2 0.00 0.00 0.00 74 1017.0
20260503030731 7 130 0.0 3.2 0.00 0.00 0.00 71 1017.0
20260503030227 7 138 0.0 0.0 0.00 0.00 0.00 70 1017.1
20260503025724 8 157 0.0 0.0 0.00 0.00 0.00 67 1016.9
20260503025222 8 130 0.0 0.0 0.00 0.00 0.00 66 1017.0
20260503024718 9 147 0.0 0.0 0.00 0.00 0.00 64 1016.8
20260503024216 9 129 1.6 1.6 0.00 0.00 0.00 60 1017.0
20260503023713 9 154 0.0 0.0 0.00 0.00 0.00 63 1017.0
20260503023209 10 138 0.0 0.0 0.00 0.00 0.00 58 1016.8
20260503022705 9 150 0.0 0.0 0.00 0.00 0.00 61 1016.6
20260503022205 10 165 0.0 0.0 0.00 0.00 0.00 61 1016.9
20260503021702 10 141 0.0 0.0 0.00 0.00 0.00 57 1016.6
20260503021159 10 142 0.0 0.0 0.00 0.00 0.00 55 1016.6
20260503020656 11 130 0.0 0.0 0.00 0.00 0.00 52 1016.6
20260503020153 11 131 0.0 1.6 0.00 0.00 0.00 51 1016.5
20260503015650 11 126 0.0 0.0 0.00 0.00 0.00 51 1016.4
20260503015147 11 110 0.0 0.0 0.00 0.00 0.00 50 1016.3
20260503014643 12 127 0.0 0.0 0.00 0.00 0.00 50 1016.3
20260503014141 12 89 0.0 1.6 0.00 0.00 0.00 50 1016.1
20260503013638 12 110 0.0 3.2 0.00 0.00 0.00 49 1016.1
20260503013136 12 96 0.0 0.0 0.00 0.00 0.00 48 1015.8
20260503012633 12 70 0.0 3.2 0.00 0.00 0.00 49 1015.9
20260503012129 12 91 0.0 3.2 0.00 0.00 0.00 47 1015.8
20260503011626 13 103 1.6 1.6 0.00 0.00 0.00 47 1015.8
20260503011123 13 123 0.0 1.6 0.00 0.00 0.00 46 1015.7
20260503010619 13 106 0.0 1.6 0.00 0.00 0.00 45 1015.6
20260503010117 13 127 1.6 6.4 0.00 0.00 0.00 44 1015.5
20260503005614 13 114 0.0 3.2 0.00 0.00 0.00 45 1015.1
20260503005111 14 353 1.6 3.2 0.00 0.00 0.00 44 1015.3
20260503004607 14 129 0.0 0.0 0.00 0.00 0.00 44 1015.1
20260503004106 14 145 0.0 1.6 0.00 0.00 0.00 44 1015.0
20260503003602 14 142 0.0 0.0 0.00 0.00 0.00 43 1015.0
20260503003059 15 129 0.0 1.6 0.00 0.00 0.00 43 1014.9
20260503002556 15 148 0.0 1.6 0.00 0.00 0.00 43 1014.7
20260503002053 15 134 0.0 1.6 0.00 0.00 0.00 42 1014.6
20260503001549 15 62 1.6 4.8 0.00 0.00 0.00 41 1014.6
20260503001046 15 125 0.0 1.6 0.00 0.00 0.00 42 1014.4
20260503000544 15 134 0.0 9.7 0.00 0.00 0.00 42 1014.3
20260503000041 15 112 0.0 1.6 0.00 0.00 0.00 41 1014.2
20260502235537 15 107 1.6 3.2 0.00 0.00 0.00 41 1014.1
20260502235035 15 123 1.6 3.2 0.00 0.00 0.00 41 1014.0
20260502234531 15 97 3.2 4.8 0.00 0.00 0.00 42 1013.8
20260502234029 16 47 3.2 3.2 0.00 0.00 0.00 41 1013.9
20260502233529 15 82 1.6 4.8 0.00 0.00 0.00 40 1013.7
20260502233027 15 114 0.0 4.8 0.00 0.00 0.00 40 1013.7
20260502232522 15 24 3.2 4.8 0.00 0.00 0.00 40 1013.4
20260502232020 15 55 1.6 3.2 0.00 0.00 0.00 42 1013.6
20260502231517 16 9 1.6 3.2 0.00 0.00 0.00 41 1013.4
20260502231015 16 337 8.0 9.7 0.00 0.00 0.00 40 1013.4
20260502230513 16 109 1.6 3.2 0.00 0.00 0.00 41 1013.2
20260502230011 16 123 0.0 1.6 0.00 0.00 0.00 42 1013.3
20260502225511 16 64 1.6 4.8 0.00 0.00 0.00 41 1013.3
20260502225009 16 50 1.6 3.2 0.00 0.00 0.00 42 1013.3
20260502224505 16 116 0.0 0.0 0.00 0.00 0.00 45 1013.5
20260502224002 16 95 1.6 4.8 0.00 0.00 0.00 41 1013.3
20260502223459 16 141 0.0 4.8 0.00 0.00 0.00 44 1013.3
20260502222958 16 33 3.2 4.8 0.00 0.00 0.00 46 1013.3
20260502222455 16 131 0.0 0.0 0.00 0.00 0.00 55 1012.9
20260502221950 17 226 3.2 3.2 0.00 0.00 0.00 56 1013.0
20260502221447 17 146 3.2 4.8 0.00 0.00 0.00 55 1012.8
20260502220944 18 290 4.8 9.7 0.00 0.00 0.00 51 1012.7
20260502220439 17 169 0.0 3.2 0.00 0.00 0.00 51 1012.6
20260502215936 17 321 3.2 4.8 0.00 0.00 0.00 54 1012.7
20260502215434 18 307 8.0 9.7 0.00 0.00 0.00 51 1012.8
20260502214931 17 254 4.8 9.7 0.00 0.00 0.00 50 1012.7
20260502214427 18 227 3.2 4.8 0.00 0.00 0.00 54 1012.8
20260502213925 18 139 0.0 3.2 0.00 0.00 0.00 54 1012.6
20260502213421 18 127 1.6 3.2 0.00 0.00 0.00 51 1012.6
20260502212920 18 157 1.6 6.4 0.00 0.00 0.00 53 1012.5
20260502212419 18 258 9.7 12.9 0.00 0.00 0.00 52 1012.4
20260502211915 17 155 1.6 6.4 0.00 0.00 0.00 53 1012.6
20260502211411 17 242 4.8 12.9 0.00 0.00 0.00 56 1012.6
20260502210908 18 240 8.0 9.7 0.00 0.00 0.00 54 1012.5
20260502210405 17 264 6.4 14.5 0.00 0.00 0.00 55 1012.5
20260502205902 17 217 3.2 9.7 0.00 0.00 0.00 55 1012.6
20260502205358 17 198 6.4 11.3 0.00 0.00 0.00 55 1012.6
20260502204856 17 236 3.2 3.2 0.00 0.00 0.00 57 1012.7
20260502204353 16 245 3.2 3.2 0.00 0.00 0.00 57 1012.7
20260502203850 16 225 3.2 6.4 0.00 0.00 0.00 56 1012.8
20260502203348 16 158 0.0 4.8 0.00 0.00 0.00 56 1012.7
20260502202843 16 222 4.8 9.7 0.00 0.00 0.00 59 1012.7
20260502202341 16 206 4.8 9.7 0.00 0.00 0.00 58 1012.8
20260502201839 17 162 0.0 1.6 0.00 0.00 0.00 54 1012.8
20260502201334 16 159 1.6 4.8 0.00 0.00 0.00 57 1012.7
20260502200831 16 143 0.0 4.8 0.00 0.00 0.00 55 1012.8